AirNav   BOSE A20 Aviation Headset
 
 471 users online  

T19 Duval-Freer Airport
Freer, Texas, USA

GOING TO FREER?


FAA INFORMATION EFFECTIVE 26 APRIL 2018

Location

FAA Identifier: T19
Lat/Long: 27-53-19.3000N / 098-35-59.8500W
27-53.321667N / 098-35.997500W
27.8886944 / -98.5999583
(estimated)
Elevation: 564 ft. / 171.9 m (surveyed)
Variation: 07E (1985)
From city: 1 mile NE of FREER, TX
Time zone: UTC -5 (UTC -6 during Standard Time)
Zip code: 78357

Airport Operations

Airport use: Open to the public
Activation date: 11/1947
Control tower: no
ARTCC: HOUSTON CENTER
FSS: SAN ANGELO FLIGHT SERVICE STATION
NOTAMs facility: SJT (NOTAM-D service available)
Attendance: UNATNDD
Wind indicator: lighted
Segmented circle: yes
Lights: SS-SR
Beacon: white-green (lighted land airport)
Operates sunset to sunrise.

Airport Communications

CTAF: 122.9

Nearby radio navigation aids

VOR radial/distance  VOR name  Freq  Var
ALIr280/(32.0)ALICE VOR114.5006E

 
NDB name  Hdg/Dist  Freq  Var  ID
HEBBRONVILLE007/33.026606EHBV .... -... ...-

Airport Services

Parking: tiedowns
Airframe service: NONE
Powerplant service: NONE

Runway Information

Runway 14/32

Dimensions: 3200 x 60 ft. / 975 x 18 m
Surface: asphalt, in poor condition
BROKEN PIECES OF ASPHALT ALONG RWY EDGES AND THLDS.
Weight bearing capacity: 
Single wheel: 24.0
Runway edge lights: low intensity
SEVERAL RY AND THLD LIGHTS INOPERATIVE AND ARE MOUNTED ON NON-FRANGIBLE STEEL RODS.
RUNWAY 14  RUNWAY 32
Gradient: 1.1%1.1%
Traffic pattern: leftleft
Markings: basic, in good conditionbasic, in good condition
Obstructions: 12 ft. brush, 360 ft. from runway, 13:1 slope to clear42 ft. pole, 977 ft. from runway, 86 ft. right of centerline, 18:1 slope to clear

Airport Ownership and Management from official FAA records

Ownership: Publicly-owned
Owner: DUVAL CO - CITY OF FREER
CITY OF FREER
FREER, TX 78357
Phone 361-394-6612
Manager: ANA GARCIA
P.O. DRAWER N
FREER, TX 78357
Phone 361-394-6612
MAYOR.

Airport Operational Statistics

Aircraft operations: 100/year *
100% transient general aviation
* for 12-month period ending 23 March 2017

Additional Remarks

TO HAVE GATE UNLOCKED, CALL 361-394-6002 (POLICE DEPT).
APRON AND TAXIWAY MARKINGS FADED.

Instrument Procedures

There are no published instrument procedures at T19.

Some nearby airports with instrument procedures:

KNOG - Orange Grove Naval Auxiliary Field (30 nm E)
KALI - Alice International Airport (32 nm E)
KHBV - Jim Hogg County Airport (33 nm S)
KIKG - Kleberg County Airport (36 nm SE)
8T6 - Live Oak County Airport (38 nm NE)
 
Loc | Ops | Rwys | IFR | FBO | Links
Com | Nav | Svcs | Stats | Notes

AirNav Hotels Sweepstakes
 
Area around T19 (Duval-Freer Airport)
 
Road maps at: MapQuest Bing Google
 
Aerial photo
WARNING: Photo may not be current or correct
Aerial photo of T19 (Duval-Freer Airport)
Photo by Gregg Gilliam
Taken in January 2009

Do you have a better or more recent aerial photo of Duval-Freer Airport that you would like to share? If so, please send us your photo.

 
Sectional chart

 
Airport distance calculator
Flying to Duval-Freer Airport? Find the distance to fly.

From to T19

Sunrise and sunset
Times for 24-May-2018
 Local
(UTC-5)
 Zulu
(UTC)
Morning civil twilight06:1611:16
Sunrise06:4211:42
Sunset20:2101:21
Evening civil twilight20:4701:47

Current date and time
Zulu (UTC)  24-May-2018 10:27:21
Local (UTC-5)  24-May-2018 05:27:21
 
METAR
KNOG 
29nm E 
240956Z AUTO 00000KT 7SM CLR 23/23 A3001 RMK AO2 SLP143 T02330228 $
KALI 
32nm E 
241015Z AUTO 00000KT 3SM BR OVC012 22/21 A3000 RMK AO2 T02220211
KHBV 
33nm S 
241015Z AUTO 00000KT 4SM BR BKN003 OVC008 23/22 A3003 RMK AO2 T02310220
KIKG 
36nm SE 
241015Z AUTO 00000KT 1SM OVC009 23/23 A3001 RMK AO2 T02300230
KCOT 
47nm NW 
241006Z AUTO 13008KT 10SM SCT010 BKN016 OVC021 23/23 A3001 RMK AO2 T02330228
KNQI 
48nm SE 
241019Z AUTO 00000KT 3/4SM BR FEW012 SCT021 23/22 A3000 RMK AO2 T02280222
KBKS 
48nm SE 
241015Z AUTO 04003KT 3/4SM BKN015 23/22 A3000 RMK AO1 T02320221
KRBO 
49nm E 
241015Z AUTO 00000KT 4SM BR CLR 24/24 A3001 RMK AO2 T02390235
TAF
KALI 
32nm E 
240533Z 2406/2506 12009KT P6SM FEW020 FM240900 12003KT 4SM BR SCT015 TEMPO 2409/2413 1/2SM FG VV007 FM241400 13011KT P6SM SCT025 FM241900 12012G18KT P6SM SCT040 FM250100 13010KT P6SM SCT020
NOTAMs
Click for the latest NOTAMs
NOTAMs are issued by the DoD/FAA and will open in a separate window not controlled by AirNav.

 

 
 

Would you like to see your business listed on this page?

 If your business provides an interesting product or service to pilots, flight crews, aircraft, or users of the Duval-Freer Airport, you should consider listing it here.  To start the listing process, click on the button below
 
Add a business
 

Other Pages about Duval-Freer Airport

Update a link
 
Copyright © AirNav, LLC. All rights reserved. Privacy Policy  Contact